Regional Weather Roundup
Issued by NWS

Home | Current Version | Previous Version | Graphics & Text | Print | Product List | Glossary On
Versions: 1 2 3 4 5 6 7 8 9 10 11 12 13 14 15 16 17 18 19 20 21 22 23 24 25 26 27 28 29 30 31 32 33 34 35 36 37 38 39 40 41 42 43 44 45 46 47 48 49 50
000
ASUS45 KABQ 160410
RWRNM
WEATHER ROUNDUP FOR NEW MEXICO
NATIONAL WEATHER SERVICE ALBUQUERQUE NM
1000 PM MDT MON SEP 15 2014

NOTE: "FAIR" MEANS FEW OR NO CLOUDS BELOW 12,000 FEET AGL WITH NO
       SIGNIFICANT WEATHER OR OBSTRUCTIONS TO VISION.

      THIS PRODUCT IS RELEASED AS TWO VERSIONS.  ONE VERSION NEAR
      THE TOP OF THE HOUR CONTAINING PRELIMINARY DATA FROM ALBUQUERQUE
      AND OTHER STATIONS.  A FINAL VERSION WITH ADDITIONAL DATA IS
      ISSUED ABOUT 10 MINUTES AFTER THE HOUR.

NMZ501-503-504-510>518-160500-
NORTHWEST PLATEAU/NORTHCENTRAL MOUNTAINS

CITY           SKY/WX    TMP DP  RH WIND       PRES   REMARKS
FARMINGTON     PTCLDY    74  43  32 S12G22    30.20R
LOS ALAMOS     PTCLDY    63  51  66 S14G21    30.42S
SANTA FE       PTCLDY    65  52  62 S17       30.36R
ANGEL FIRE     FAIR      42  38  88 CALM      30.52S

$$
NMZ402-403-502-505>509-160500-
WESTCENTRAL MOUNTAINS/SOUTHWEST MOUNTAINS

CITY           SKY/WX    TMP DP  RH WIND       PRES   REMARKS
GALLUP         CLOUDY    63  54  72 S3        30.31S
GRANTS         MOCLDY    66  52  59 SE20G31   30.35R
SILVER CITY    CLOUDY    70  57  64 SE9       30.28R

$$
NMZ407-409-411-412-160500-
SOUTHERN DESERTS

CITY           SKY/WX    TMP DP  RH WIND       PRES   REMARKS
LORDSBURG      FAIR      73  59  60 SE12      30.16R
DEMING         CLOUDY    75  60  59 SE12      30.19R
LAS CRUCES     CLOUDY    71  62  72 SE5       30.23S
HOLLOMAN AFB   MOCLDY    74  60  62 S13       30.19R
ALAMOGORDO     MOCLDY    72  59  64 S9        30.22R
T OR C         CLOUDY    74  57  55 S8        30.23R

$$
NMZ519>523-160500-
CENTRAL VALLEYS/CENTRAL HIGHLANDS

CITY           SKY/WX    TMP DP  RH WIND       PRES   REMARKS
ALBUQUERQUE    CLOUDY    71  58  63 SE12      30.30R
DOUBLE EAGLE   CLOUDY    68  57  68 E10       30.33R
MORIARTY ARPT  MOCLDY    62  56  79 SE7       30.39R
CLINES CORNERS CLOUDY    59  53  80 E15       30.42R
BELEN          LGT RAIN  69  57  65 SE12      30.29R
SOCORRO        CLOUDY    64  59  85 NW7G17    30.29R

$$
NMZ524>526-539-540-160500-
SOUTHCENTRAL MOUNTAINS

CITY           SKY/WX    TMP DP  RH WIND       PRES   REMARKS
RUIDOSO        CLOUDY    59  57  94 SE8       30.43R

$$
NMZ527>531-160500-
NORTHEAST HIGHLANDS/NORTHEAST PLAINS

CITY           SKY/WX    TMP DP  RH WIND       PRES   REMARKS
LAS VEGAS      CLOUDY    56  52  86 E9        30.44R
RATON          MOCLDY    58  52  80 W12       30.38R
CLAYTON        CLOUDY    56  53  90 NE5       30.35S FOG

$$
NMZ532>537-160500-
EASTCENTRAL PLAINS

CITY           SKY/WX    TMP DP  RH WIND       PRES   REMARKS
TUCUMCARI      CLOUDY    64  55  72 NE8       30.31R
CANNON AFB     PTCLDY    65  58  80 NE13      30.31R
CLOVIS AIRPORT   N/A     64  57  77 NE13      30.34R

$$
NMZ028-029-538-160500-
SOUTHEAST PLAINS

CITY           SKY/WX    TMP DP  RH WIND       PRES   REMARKS
ROSWELL        CLOUDY    71  63  75 E5        30.24R
CARLSBAD       CLOUDY    70  70 100 CALM      30.21R
HOBBS          CLOUDY    68  66  94 CALM      30.25R


$$


USA.gov is the U.S. government's official web portal to all federal, state and local government web resources and services.